GPS BIIF-5

Last updated on Sun Apr 05 2026 00:02:36 GMT+0000 (Coordinated Universal Time)

1 39533U 14008A 26093.39631494 .00000034 00000+0 00000+0 0 9990 2 39533 53.6404 152.3712 0083264 229.3793 129.9742 2.00555066 88184
UTC large
Height (km)
Speed (km/s)
/
Latitude / Longitude
Inclination (degrees)
Orbital Period (minutes)
Azimuth
Elevation
Range (km)
Doppler Factor

Next 0 passes for location: London (51.5072 / 0.1276)

Sorry there are no passes over London.